Regional Weather Roundup
Issued by NWS

Home | Current Version | Previous Version | Graphics & Text | Print | Product List | Glossary On
Versions: 1 2 3 4 5 6 7 8 9 10 11 12 13 14 15 16 17 18 19 20 21 22 23 24 25 26 27 28 29 30 31 32 33 34 35 36 37 38 39 40 41 42 43 44 45 46 47 48 49 50
000
ASUS44 KMEG 231810
RWRTN
TENNESSEE HOURLY STATE WEATHER ROUNDUP
NATIONAL WEATHER SERVICE MEMPHIS TN
100 PM CDT WED AUG 23 2017

TNZ002-004-019-021-049-052-054-088>092-231900-
WEST TENNESSEE

CITY           SKY/WX    TMP DP  RH WIND       PRES   REMARKS
MEMPHIS INTL   CLOUDY    83  69  62 N12       30.02F
NWS MEMPHIS      N/A     81 N/A N/A MISG        N/A
JACKSON        CLOUDY    83  65  54 N8        30.04F
DYERSBURG      PTSUNNY   80  62  54 N9        30.05F
SOMERVILLE     MOSUNNY   82  66  57 N8G15     30.02F
COVINGTON      SUNNY     81  64  57 NE10      30.04F
BOLIVAR        MOSUNNY   82  68  61 VRB6      30.02F
PARIS          SUNNY     79  57  47 VRB8      30.04F
HUNTINGDON     SUNNY     79  61  53 NW5G12    30.04F
LEXINGTON      MOSUNNY   81  64  57 NW8       30.03F
SELMER         PTSUNNY   81  68  65 NE7G16    30.02F
SAVANNAH       MOSUNNY   82  70  65 NE10      30.01F
$$

TNZ008-025-027-028-033-062-065-066-231900-
NORTH MIDDLE TENNESSEE

CITY           SKY/WX    TMP DP  RH WIND       PRES   REMARKS
NASHVILLE      PTSUNNY   82  57  42 NW10      30.03F
PORTLAND       SUNNY     77  59  53 N12       30.03F
CLARKSVILLE    SUNNY     79  56  45 N9        30.04F
SMYRNA         MOSUNNY   82  62  50 N13       30.03F
COOKEVILLE     MOSUNNY   79  64  61 NW6G12    30.02F
GALLATIN       SUNNY     81  59  47 NW10      30.05F
CROSSVILLE     MOSUNNY   78  58  49 NW7       30.06S
$$

TNZ061-075-076-078-094-096-097-231900-
SOUTH MIDDLE TENNESSEE

CITY           SKY/WX    TMP DP  RH WIND       PRES   REMARKS
FAYETTEVILLE   MOSUNNY   81  66  61 N9        30.02F
TULLAHOMA      MOSUNNY   81  61  50 N10       30.04F
MCMINNVILLE    MOSUNNY   81  64  57 VRB6      30.03F
COLUMBIA       MOSUNNY   81  63  54 N7        30.01F
SHELBYVILLE    MOSUNNY   81  64  57 N8        30.02F
$$

TNZ017-018-042-046-047-231900-
NORTHEAST TENNESSEE

CITY           SKY/WX    TMP DP  RH WIND       PRES   REMARKS
TRI CITIES     PTSUNNY   83  65  54 SW7       29.98F
ELIZABETHTON   PTSUNNY   81  66  61 CALM      29.99F
$$

TNZ012-013-036-069-073-074-231900-
CENTRAL EAST TENNESSEE

CITY           SKY/WX    TMP DP  RH WIND       PRES   REMARKS
KNOXVILLE      PTSUNNY   81  63  54 NW6       29.97F
OAK RIDGE      MOSUNNY   84  61  45 VRB3      29.99F
DOWNTOWN KNOXV MOSUNNY   84  64  51 CALM      29.96F
GATLINBURG     MOSUNNY   88  64  45 W5        29.97F
MORRISTOWN     MOSUNNY   82  66  57 W8        29.98F
JACKSBORO      MOSUNNY   81  63  54 VRB5      30.02F
$$

TNZ083-085-099-231900-
SOUTHEAST TENNESSEE

CITY           SKY/WX    TMP DP  RH WIND       PRES   REMARKS
CHATTANOOGA    MOSUNNY   86  63  45 N13       29.98F
DAYTON         MOCLDY    84  66  54 N7G15     29.97F
$$

SKY/WX REPORTED AS FAIR MEANS FEW OR NO CLOUDS BELOW
12 THOUSAND FEET.





USA.gov is the U.S. government's official web portal to all federal, state and local government web resources and services.